QPF
0.00 0.00 0.00 0.00 0.00 0.00 0.00 0.00 0.00 0.00 0.00 0.00 0.00 0.00 0.00 0.00 0.00 0.00 0.00 0.00 0.00 0.00 0.00 0.00 0.00 0.00 0.00 0.00 0.00 0.00 0.00 0.00 0.00 0.00 0.00 0.00 0.00 0.00 0.00 0.00 0.00 0.00 0.00
0.00 0.00 0.00 0.00 0.00 0.00 0.00 0.00 0.00 0.00 0.00 0.00 0.00 0.00 0.00 0.00 0.00 0.00 0.00 0.00 0.00 0.00 0.00 0.00 0.00 0.00 0.00 0.00 0.00 0.00 0.00 0.00 0.00 0.00 0.00 0.00 0.00 0.00 0.00 0.00 0.00 0.00 0.00
0.00 0.00 0.00 0.00 0.00 0.00 0.00 0.00 0.00 0.00 0.00 0.00 0.00 0.00 0.00 0.00 0.00 0.00 0.00 0.00 0.00 0.00 0.00 0.00 0.00 0.00 0.00 0.00 0.00 0.00 0.00 0.00 0.00 0.00 0.00 0.00 0.00 0.00 0.00 0.00 0.00 0.00 0.00
0.00 0.00 0.00 0.00 0.00 0.00 0.00 0.00 0.00 0.00 0.00 0.00 0.00 0.00 0.00 0.00 0.00 0.00 0.00 0.00 0.00 0.00 0.00 0.00 0.00 0.00 0.00 0.00 0.00 0.00 0.00 0.00 0.00 0.00 0.00 0.00 0.00 0.00 0.00 0.00 0.00 0.00 0.00
0.00 0.00 0.00 0.00 0.00 0.00 0.00 0.00 0.00 0.00 0.00 0.00 0.00 0.00 0.00 0.00 0.00 0.00 0.00 0.00 0.00 0.00 0.00 0.00 0.00 0.00 0.00 0.00 0.00 0.00 0.00 0.00 0.00 0.00 0.00 0.00 0.00 0.00 0.00 0.00 0.00 0.00 0.00
0.00 0.00 0.00 0.00 0.00 0.00 0.00 0.00 0.00 0.00 0.00 0.00 0.00 0.00 0.00 0.00 0.00 0.00 0.00 0.00 0.00 0.00 0.00 0.00 0.00 0.00 0.00 0.00 0.00 0.00 0.00 0.00 0.00 0.00 0.00 0.00 0.00 0.00 0.00 0.00 0.00 0.00 0.00
0.00 0.00 0.00 0.00 0.00 0.00 0.00 0.00 0.00 0.00 0.00 0.00 0.00 0.00 0.00 0.00 0.00 0.00 0.00 0.00 0.00 0.00 0.00 0.00 0.00 0.00 0.00 0.00 0.00 0.00 0.00 0.00 0.00 0.00 0.00 0.00 0.00 0.00 0.00 0.00 0.00 0.00 0.00
0.00 0.00 0.00 0.00 0.00 0.00 0.00 0.00 0.00 0.00 0.00 0.00 0.00 0.00 0.00 0.00 0.00 0.00 0.00 0.00 0.00 0.00 0.00 0.00 0.00 0.00 0.00 0.00 0.00 0.00 0.00 0.00 0.00 0.00 0.00 0.00 0.00 0.00 0.00 0.00 0.00 0.00 0.00
0.00 0.00 0.00 0.00 0.00 0.00 0.00 0.00 0.00 0.00 0.00 0.00 0.00 0.00 0.00 0.00 0.00 0.00 0.00 0.00 0.00 0.00 0.00 0.00 0.00 0.00 0.00 0.00 0.00 0.00 0.00 0.00 0.00 0.00 0.00 0.00 0.00 0.00 0.00 0.00 0.00 0.00 0.00
0.00 0.00 0.00 0.00 0.00 0.00 0.00 0.00 0.00 0.00 0.00 0.00 0.00 0.00 0.00 0.00 0.00 0.00 0.00 0.00 0.00 0.00 0.00 0.00 0.00 0.00 0.00 0.00 0.00 0.00 0.00 0.00 0.00 0.00 0.00 0.00 0.00 0.00 0.00 0.00 0.00 0.00 0.00
0.00 0.00 0.00 0.00 0.00 0.00 0.00 0.00 0.00 0.00 0.00 0.00 0.00 0.00 0.00 0.00 0.00 0.00 0.00 0.00 0.00 0.00 0.00 0.00 0.00 0.00 0.00 0.00 0.00 0.00 0.00 0.00 0.00 0.00 0.00 0.00 0.00 0.00 0.00 0.00 0.00 0.00 0.00
0.00 0.00 0.00 0.00 0.00 0.00 0.00 0.00 0.00 0.00 0.00 0.00 0.00 0.00 0.00 0.00 0.00 0.00 0.00 0.00 0.00 0.00 0.00 0.00 0.00 0.00 0.00 0.00 0.00 0.00 0.00 0.00 0.00 0.00 0.00 0.00 0.00 0.00 0.00 0.00 0.00 0.00 0.00
0.00 0.00 0.00 0.00 0.00 0.00 0.00 0.00 0.00 0.00 0.00 0.00 0.00 0.00 0.00 0.00 0.00 0.00 0.00 0.00 0.00 0.00 0.00 0.00 0.00 0.00 0.00 0.00 0.00 0.00 0.00 0.00 0.00 0.00 0.00 0.00 0.00 0.00 0.00 0.00 0.00 0.00 0.00
0.00 0.00 0.00 0.00 0.00 0.00 0.00 0.00 0.00 0.00 0.00 0.00 0.00 0.00 0.00 0.00 0.00 0.00 0.00 0.00 0.00 0.00 0.00 0.00 0.00 0.00 0.00 0.00 0.00 0.00 0.00 0.00 0.00 0.00 0.00 0.00 0.00 0.00 0.00 0.00 0.00 0.00 0.00
0.00 0.00 0.00 0.00 0.00 0.00 0.00 0.00 0.00 0.00 0.00 0.00 0.00 0.00 0.00 0.00 0.00 0.00 0.00 0.00 0.00 0.00 0.00 0.00 0.00 0.00 0.00 0.00 0.00 0.00 0.00 0.00 0.00 0.00 0.00 0.00 0.00 0.00 0.00 0.00 0.00 0.00 0.00
0.00 0.00 0.00 0.00 0.00 0.00 0.00 0.00 0.00 0.00 0.00 0.00 0.00 0.00 0.00 0.00 0.00 0.00 0.00 0.00 0.00 0.00 0.00 0.00 0.00 0.00 0.00 0.00 0.00 0.00 0.00 0.00 0.00 0.00 0.00 0.00 0.00 0.00 0.00 0.00 0.00 0.00 0.00
0.00 0.00 0.00 0.00 0.00 0.00 0.00 0.00 0.00 0.00 0.00 0.00 0.00 0.00 0.01 0.00 0.00 0.00 0.00 0.01 0.00 0.00 0.00 0.00 0.00 0.00 0.00 0.00 0.00 0.00 0.00 0.00 0.00 0.00 0.00 0.00 0.00 0.00 0.00 0.00 0.00 0.00 0.00
0.00 0.00 0.00 0.00 0.00 0.00 0.00 0.00 0.00 0.00 0.00 0.00 0.00 0.00 0.01 0.01 0.00 0.01 0.01 0.01 0.00 0.00 0.00 0.00 0.00 0.00 0.00 0.00 0.00 0.00 0.00 0.00 0.00 0.00 0.00 0.00 0.00 0.00 0.00 0.00 0.00 0.00 0.00
0.00 0.00 0.00 0.00 0.00 0.00 0.00 0.00 0.00 0.00 0.00 0.00 0.00 0.00 0.00 0.01 0.01 0.01 0.01 0.00 0.00 0.00 0.00 0.00 0.00 0.00 0.00 0.00 0.00 0.00 0.00 0.00 0.00 0.00 0.00 0.00 0.00 0.00 0.00 0.00 0.00 0.00 0.00
0.00 0.00 0.00 0.00 0.00 0.00 0.00 0.00 0.00 0.00 0.00 0.00 0.00 0.00 0.00 0.00 0.00 0.00 0.00 0.00 0.00 0.00 0.00 0.00 0.00 0.00 0.00 0.00 0.00 0.00 0.00 0.00 0.00 0.00 0.00 0.00 0.00 0.00 0.00 0.00 0.00 0.00 0.00
0.00 0.00 0.00 0.00 0.00 0.00 0.00 0.00 0.00 0.00 0.00 0.00 0.00 0.00 0.00 0.00 0.00 0.00 0.00 0.00 0.00 0.00 0.00 0.00 0.00 0.00 0.00 0.00 0.00 0.00 0.00 0.00 0.00 0.00 0.00 0.00 0.00 0.00 0.00 0.00 0.00 0.00 0.00
0.00 0.00 0.00 0.00 0.00 0.00 0.00 0.00 0.00 0.00 0.00 0.00 0.00 0.00 0.00 0.00 0.00 0.00 0.00 0.00 0.00 0.00 0.00 0.00 0.00 0.00 0.00 0.00 0.00 0.00 0.00 0.00 0.00 0.00 0.00 0.00 0.00 0.00 0.00 0.00 0.00 0.00 0.00
0.00 0.00 0.00 0.00 0.00 0.00 0.00 0.00 0.00 0.00 0.00 0.00 0.00 0.00 0.00 0.00 0.00 0.00 0.00 0.00 0.00 0.00 0.00 0.00 0.00 0.00 0.00 0.00 0.00 0.00 0.00 0.00 0.00 0.00 0.00 0.00 0.00 0.00 0.00 0.00 0.00 0.00 0.00
0.00 0.00 0.00 0.00 0.00 0.00 0.00 0.00 0.00 0.00 0.00 0.00 0.00 0.00 0.00 0.00 0.00 0.00 0.00 0.00 0.00 0.00 0.00 0.00 0.00 0.00 0.00 0.00 0.00 0.00 0.00 0.00 0.00 0.00 0.00 0.00 0.00 0.00 0.00 0.00 0.00 0.00 0.00
0.00 0.00 0.00 0.00 0.00 0.00 0.00 0.00 0.00 0.00 0.00 0.00 0.00 0.00 0.00 0.00 0.00 0.00 0.00 0.00 0.00 0.00 0.00 0.00 0.00 0.00 0.00 0.00 0.00 0.00 0.00 0.00 0.00 0.00 0.00 0.00 0.00 0.00 0.00 0.00 0.00 0.00 0.00
0.00 0.00 0.00 0.00 0.00 0.00 0.00 0.00 0.00 0.00 0.00 0.00 0.00 0.00 0.00 0.00 0.00 0.00 0.00 0.00 0.00 0.00 0.00 0.00 0.00 0.00 0.00 0.00 0.00 0.00 0.00 0.00 0.00 0.00 0.00 0.00 0.00 0.00 0.00 0.00 0.00 0.00 0.00
MSLP
1012.10 1011.54 1011.33 1011.25 1011.36 1011.50 1011.46 1010.40 1010.10 1010.58 1010.82 1011.11 1011.45 1012.29 1013.04 1013.20 1013.77 1014.53 1014.71 1015.44 1015.91 1016.77 1017.76 1018.25 1018.80 1019.35 1020.18 1020.82 1021.32 1021.80 1022.32 1022.75 1023.35 1024.98 1025.11 1025.33 1025.66 1025.99 1026.39 1026.45 1026.25 1025.79 1024.97
1012.98 1012.03 1011.56 1011.24 1011.26 1011.38 1011.01 1010.47 1009.86 1010.00 1010.28 1010.57 1010.92 1011.09 1011.99 1012.62 1012.68 1012.95 1013.82 1014.13 1014.45 1015.23 1016.20 1017.37 1018.12 1018.98 1019.77 1020.42 1020.93 1021.30 1021.68 1022.41 1022.99 1023.77 1024.78 1024.88 1024.93 1025.05 1025.08 1025.43 1025.21 1025.14 1024.58
1013.38 1012.90 1012.12 1011.59 1011.33 1011.00 1010.55 1010.21 1009.57 1009.65 1009.56 1010.03 1010.33 1010.29 1010.64 1011.39 1011.84 1011.90 1012.31 1013.15 1013.84 1013.98 1014.65 1015.59 1016.60 1017.73 1018.81 1019.70 1020.37 1021.10 1021.60 1021.82 1022.44 1023.07 1023.83 1024.52 1024.18 1024.20 1024.11 1024.25 1024.34 1024.12 1023.70
1013.63 1013.53 1013.17 1012.79 1011.95 1010.65 1009.96 1009.50 1009.09 1009.21 1009.36 1009.38 1009.51 1009.24 1009.30 1009.93 1010.67 1011.04 1011.58 1011.94 1012.38 1012.89 1013.50 1014.18 1014.96 1015.83 1016.91 1018.17 1019.31 1020.19 1021.44 1021.89 1022.11 1022.74 1023.42 1024.15 1024.45 1024.16 1024.30 1023.93 1023.64 1024.10 1023.64
1013.94 1013.30 1012.99 1012.70 1011.93 1011.10 1010.22 1009.12 1008.72 1008.98 1008.83 1008.42 1008.90 1008.84 1008.82 1008.46 1008.54 1009.69 1010.47 1011.07 1011.36 1011.63 1012.36 1013.18 1013.77 1014.60 1015.21 1016.15 1017.50 1018.86 1020.02 1020.96 1021.59 1022.36 1022.86 1023.51 1023.84 1024.15 1023.67 1023.47 1023.89 1024.40 1023.97
1014.36 1013.94 1013.52 1012.47 1011.93 1011.04 1010.10 1009.02 1008.46 1008.51 1008.27 1008.11 1008.27 1008.17 1008.28 1007.99 1007.53 1007.47 1008.44 1009.51 1010.27 1010.75 1011.65 1012.57 1013.09 1014.02 1014.37 1015.09 1016.37 1017.10 1017.91 1019.26 1020.44 1020.88 1021.72 1021.98 1021.89 1022.92 1022.97 1023.25 1023.46 1023.84 1023.60
1014.34 1013.58 1013.18 1012.62 1011.54 1010.84 1010.07 1009.37 1008.87 1008.53 1008.21 1007.89 1007.55 1007.70 1007.32 1007.09 1007.22 1007.10 1007.34 1008.08 1008.49 1008.99 1010.23 1011.45 1012.50 1012.90 1013.97 1014.80 1015.57 1016.72 1017.69 1018.31 1018.74 1019.08 1020.17 1020.68 1020.87 1021.59 1022.17 1022.58 1022.56 1022.84 1022.50
1013.89 1013.39 1012.84 1012.45 1011.62 1010.71 1010.00 1009.82 1009.48 1008.72 1008.42 1007.65 1006.93 1006.81 1006.31 1006.09 1006.55 1006.54 1006.65 1007.36 1008.00 1007.91 1008.62 1009.72 1010.49 1011.32 1012.10 1013.45 1014.42 1015.66 1016.90 1017.63 1018.13 1018.64 1019.02 1020.00 1020.24 1021.07 1021.58 1021.37 1021.49 1022.04 1022.09
1013.95 1013.47 1013.09 1012.73 1012.19 1011.24 1010.51 1009.88 1009.25 1009.06 1008.28 1007.06 1006.32 1005.72 1005.52 1005.45 1005.91 1005.36 1005.91 1006.30 1006.65 1007.06 1007.36 1008.65 1009.44 1010.47 1010.83 1012.07 1013.12 1014.35 1016.06 1017.01 1017.68 1018.02 1018.70 1019.44 1019.79 1020.22 1020.81 1020.87 1020.99 1021.70 1021.45
1013.48 1013.16 1012.88 1012.70 1012.03 1010.97 1010.45 1009.98 1009.41 1009.11 1007.98 1005.67 1005.17 1004.95 1004.61 1004.84 1004.96 1004.93 1004.93 1004.89 1006.24 1006.25 1005.20 1006.72 1007.93 1009.07 1010.28 1010.63 1011.75 1013.03 1014.38 1015.43 1016.48 1017.28 1018.09 1018.50 1018.76 1019.81 1020.29 1019.92 1020.16 1020.56 1021.00
1013.10 1012.91 1012.63 1012.19 1011.51 1010.68 1009.86 1008.83 1008.12 1007.01 1005.93 1005.46 1004.33 1003.92 1003.74 1004.13 1004.30 1004.08 1003.71 1003.82 1004.15 1005.49 1006.22 1006.53 1006.94 1008.28 1009.15 1009.74 1011.10 1012.36 1013.08 1014.61 1015.87 1016.86 1017.41 1018.49 1019.18 1019.58 1019.68 1019.79 1019.46 1019.62 1020.09
1012.66 1012.31 1012.00 1011.57 1011.01 1010.21 1009.61 1008.59 1007.55 1006.63 1005.80 1004.86 1003.89 1003.38 1003.30 1003.78 1003.67 1003.09 1002.52 1002.61 1004.00 1004.65 1005.10 1005.56 1006.78 1007.36 1008.66 1008.92 1010.20 1012.06 1013.16 1014.30 1015.19 1016.27 1017.18 1018.22 1018.79 1018.96 1019.19 1019.28 1019.00 1018.83 1019.37
1012.29 1011.81 1011.29 1010.84 1010.30 1009.64 1008.98 1007.65 1006.66 1005.50 1004.62 1003.54 1003.23 1002.95 1002.63 1002.95 1002.37 1002.22 1002.25 1001.78 1002.84 1003.90 1004.71 1005.47 1006.24 1006.58 1008.01 1008.66 1009.28 1011.29 1012.43 1013.92 1014.78 1015.76 1016.98 1017.69 1018.17 1018.42 1018.89 1018.72 1018.43 1018.77 1019.31
1011.87 1011.11 1010.56 1010.04 1009.22 1008.60 1007.82 1006.72 1005.51 1004.05 1003.11 1002.52 1002.20 1001.89 1001.44 1001.93 1001.38 1001.50 1001.45 1001.41 1001.91 1003.11 1004.10 1005.00 1006.00 1006.68 1007.87 1007.95 1008.79 1010.18 1011.67 1013.03 1013.88 1014.70 1016.18 1017.28 1018.24 1018.81 1018.86 1018.18 1017.94 1018.17 1018.36
1011.53 1010.65 1010.01 1009.36 1008.52 1007.49 1006.65 1005.61 1004.38 1002.70 1002.10 1001.32 1000.78 1000.61 1000.65 1000.35 1000.10 1000.21 1000.79 1000.68 1000.87 1001.84 1003.35 1004.35 1005.32 1005.95 1007.26 1008.14 1008.66 1010.41 1011.53 1012.73 1013.44 1014.49 1015.39 1016.92 1017.52 1018.31 1018.28 1018.07 1017.93 1017.88 1018.01
1011.14 1010.41 1009.72 1008.88 1007.98 1007.10 1005.99 1004.39 1003.52 1002.09 1000.89 999.75 999.57 999.35 999.21 999.09 999.30 999.23 999.69 999.69 1000.10 1001.26 1002.11 1002.92 1004.06 1004.40 1005.59 1006.69 1008.11 1009.82 1011.48 1012.12 1012.82 1013.66 1015.10 1016.08 1016.90 1017.59 1017.50 1017.85 1017.53 1017.60 1017.64
1010.64 1009.77 1009.01 1008.25 1007.30 1006.43 1005.49 1004.24 1002.25 1000.77 999.63 997.99 997.79 997.59 997.64 997.49 998.08 998.22 998.72 998.59 998.91 1000.65 1001.12 1001.64 1002.36 1003.68 1005.17 1006.38 1007.71 1008.71 1010.72 1011.55 1012.31 1013.34 1014.69 1015.46 1016.32 1016.71 1017.18 1017.19 1017.18 1017.39 1017.10
1009.53 1008.72 1007.91 1007.06 1006.29 1005.44 1004.52 1003.33 1002.19 1000.74 999.06 997.68 997.33 996.90 996.26 996.41 996.60 997.53 997.75 998.08 998.12 999.41 1000.47 1001.06 1002.07 1002.94 1003.94 1005.17 1007.20 1008.52 1009.93 1011.43 1012.33 1013.14 1014.01 1015.05 1015.64 1016.16 1016.56 1016.82 1016.90 1016.88 1016.55
1008.16 1007.21 1006.35 1005.50 1004.70 1003.95 1003.17 1002.29 1001.14 1000.05 998.80 997.39 996.74 996.31 995.81 995.24 995.71 996.18 996.95 997.19 997.12 998.10 999.86 1000.91 1002.01 1002.92 1004.28 1005.62 1006.63 1008.62 1009.76 1011.30 1012.66 1013.25 1013.83 1014.58 1015.25 1015.60 1015.92 1016.26 1016.51 1016.45 1016.25
1006.54 1005.57 1004.70 1003.84 1002.99 1002.25 1001.56 1000.74 999.96 998.96 997.76 996.40 995.98 995.70 995.38 995.18 994.97 995.15 995.83 996.79 997.16 997.77 999.45 1000.97 1002.51 1003.27 1004.25 1005.45 1006.88 1008.45 1010.07 1011.10 1012.80 1014.02 1014.09 1014.70 1015.13 1015.49 1015.71 1015.98 1016.30 1015.99 1015.43
1005.05 1003.97 1003.07 1002.32 1001.50 1000.72 1000.07 999.43 998.57 997.72 996.59 995.83 995.56 995.34 995.07 994.92 994.63 995.07 995.85 996.49 997.39 998.50 999.74 1001.22 1002.87 1003.88 1004.88 1006.07 1007.47 1008.90 1010.24 1011.58 1012.77 1013.41 1013.68 1014.49 1014.98 1015.16 1015.46 1015.60 1015.48 1015.38 1015.05
1003.88 1002.71 1001.64 1000.54 999.51 999.01 998.50 998.02 997.36 996.72 995.96 995.66 995.41 995.16 994.69 994.57 994.68 995.26 996.40 997.54 998.63 999.28 1000.38 1002.05 1003.43 1004.50 1005.77 1006.52 1007.50 1009.18 1010.50 1011.47 1012.35 1013.01 1013.50 1014.06 1014.57 1014.94 1015.08 1015.02 1014.82 1014.66 1014.54
1003.41 1002.22 1000.88 999.56 998.28 997.37 997.20 996.90 996.26 995.96 995.76 995.54 995.41 995.20 994.97 995.66 996.18 997.24 998.22 999.28 999.96 1000.58 1001.54 1002.73 1004.12 1005.58 1006.65 1007.19 1008.17 1008.95 1009.90 1011.07 1011.86 1012.49 1013.19 1013.90 1014.13 1014.43 1014.75 1014.56 1014.38 1014.17 1013.94
1003.38 1002.28 1001.08 999.90 998.71 997.88 997.28 996.78 996.39 996.12 996.07 996.12 996.18 996.46 996.82 997.38 997.65 998.77 999.66 1000.42 1001.00 1001.89 1002.58 1003.58 1004.91 1006.04 1007.20 1008.06 1008.97 1009.32 1010.21 1011.06 1011.78 1012.56 1013.11 1013.57 1013.61 1013.68 1013.87 1014.07 1013.79 1013.28 1013.02
1003.96 1002.95 1001.93 1000.94 1000.00 999.22 998.63 998.17 997.83 997.66 997.57 997.63 997.82 998.13 998.55 998.97 999.41 1000.17 1000.95 1001.55 1002.24 1002.84 1003.67 1004.68 1005.89 1006.87 1007.68 1008.65 1009.39 1009.93 1010.57 1011.11 1012.04 1012.69 1013.01 1012.92 1012.93 1013.22 1013.36 1013.21 1012.72 1012.39 1011.90
1004.86 1003.97 1003.14 1002.27 1001.49 1000.80 1000.21 999.85 999.63 999.45 999.34 999.38 999.52 999.74 1000.01 1000.37 1000.89 1001.47 1002.16 1002.74 1003.38 1004.15 1005.04 1006.02 1006.84 1007.39 1008.07 1008.83 1009.42 1010.05 1010.72 1011.09 1011.33 1011.59 1012.20 1012.48 1012.66 1012.63 1012.23 1011.66 1011.37 1011.39 1011.19
Thickness
5542 5546 5547 5547 5545 5545 5545 5555 5557 5552 5551 5548 5546 5543 5539 5540 5536 5532 5534 5529 5527 5519 5511 5506 5500 5496 5491 5486 5482 5478 5474 5471 5471 5453 5453 5452 5449 5446 5444 5445 5446 5448 5453
5511 5519 5525 5527 5527 5527 5530 5536 5543 5544 5543 5542 5540 5539 5533 5529 5529 5529 5524 5522 5520 5514 5507 5498 5492 5483 5477 5472 5469 5467 5464 5459 5456 5452 5440 5441 5442 5440 5440 5434 5435 5435 5437
5490 5493 5500 5503 5506 5509 5513 5519 5526 5527 5531 5526 5524 5527 5525 5520 5518 5518 5517 5511 5506 5507 5502 5495 5487 5477 5469 5461 5456 5452 5450 5450 5445 5440 5434 5427 5432 5431 5432 5428 5425 5427 5429
5464 5466 5469 5472 5479 5490 5496 5504 5506 5508 5510 5510 5509 5513 5514 5510 5506 5504 5500 5499 5496 5495 5491 5486 5481 5474 5467 5456 5448 5442 5434 5431 5431 5426 5421 5417 5414 5417 5414 5416 5418 5413 5413
5439 5443 5447 5450 5455 5463 5471 5482 5487 5486 5489 5494 5491 5494 5497 5502 5503 5495 5489 5484 5484 5484 5480 5475 5472 5466 5462 5455 5445 5435 5427 5421 5417 5412 5409 5403 5401 5399 5403 5403 5399 5394 5393
5409 5412 5416 5424 5432 5438 5447 5459 5464 5465 5467 5472 5473 5476 5478 5484 5491 5492 5484 5476 5472 5471 5466 5461 5459 5452 5451 5446 5436 5431 5425 5415 5405 5404 5399 5396 5399 5392 5391 5387 5385 5381 5381
5381 5390 5393 5400 5410 5413 5420 5428 5434 5439 5444 5449 5456 5458 5463 5469 5469 5472 5472 5466 5466 5465 5457 5451 5444 5443 5435 5430 5425 5415 5408 5405 5402 5399 5392 5388 5387 5383 5379 5375 5375 5372 5373
5357 5361 5366 5370 5379 5388 5394 5395 5401 5410 5417 5427 5437 5441 5448 5452 5450 5454 5454 5450 5448 5453 5451 5445 5440 5434 5428 5419 5411 5403 5394 5390 5386 5383 5379 5374 5370 5366 5364 5365 5365 5360 5357
5324 5330 5333 5334 5341 5353 5361 5367 5374 5378 5390 5406 5417 5424 5428 5431 5431 5439 5434 5434 5436 5440 5440 5433 5428 5420 5418 5410 5402 5393 5380 5373 5367 5364 5359 5355 5353 5352 5349 5349 5349 5343 5344
5295 5300 5304 5304 5311 5324 5331 5338 5343 5346 5364 5391 5401 5406 5412 5414 5413 5416 5417 5421 5414 5423 5435 5426 5420 5410 5400 5400 5392 5383 5372 5364 5356 5351 5346 5343 5342 5335 5333 5336 5335 5330 5324
5264 5266 5269 5274 5281 5289 5299 5315 5324 5338 5353 5365 5379 5389 5394 5394 5396 5400 5404 5406 5410 5401 5399 5404 5406 5396 5389 5384 5376 5366 5361 5349 5341 5336 5333 5325 5320 5318 5319 5318 5320 5318 5309
5236 5239 5241 5243 5250 5258 5265 5282 5295 5306 5321 5340 5352 5365 5370 5368 5375 5382 5391 5394 5386 5382 5383 5386 5380 5380 5368 5369 5363 5348 5340 5333 5329 5321 5314 5308 5304 5303 5301 5300 5302 5303 5294
5207 5211 5215 5217 5222 5229 5235 5253 5266 5285 5296 5317 5325 5336 5346 5346 5359 5365 5367 5376 5372 5365 5364 5361 5359 5361 5352 5348 5350 5334 5327 5319 5313 5303 5295 5293 5290 5287 5282 5282 5283 5280 5271
5173 5182 5187 5191 5201 5206 5214 5228 5243 5263 5278 5291 5302 5316 5327 5327 5341 5346 5349 5354 5357 5353 5348 5344 5340 5337 5332 5333 5331 5324 5315 5305 5299 5295 5283 5274 5267 5262 5261 5265 5265 5262 5256
5141 5150 5155 5161 5170 5181 5191 5203 5216 5241 5251 5268 5284 5294 5303 5316 5326 5328 5327 5334 5341 5342 5333 5326 5321 5321 5317 5313 5311 5302 5294 5286 5282 5274 5268 5256 5252 5243 5243 5244 5243 5241 5237
5115 5120 5123 5130 5138 5146 5159 5180 5191 5209 5228 5248 5262 5275 5287 5300 5306 5314 5311 5316 5321 5322 5318 5315 5311 5314 5307 5303 5293 5285 5272 5268 5265 5260 5250 5244 5236 5229 5229 5223 5224 5222 5219
5094 5099 5102 5106 5114 5122 5131 5147 5172 5188 5206 5231 5243 5258 5271 5286 5288 5296 5298 5302 5308 5302 5305 5305 5304 5299 5292 5285 5277 5270 5255 5251 5247 5242 5233 5229 5220 5216 5210 5207 5207 5204 5201
5082 5087 5090 5095 5100 5106 5114 5128 5142 5162 5183 5202 5214 5231 5253 5265 5273 5275 5283 5283 5292 5293 5290 5290 5287 5283 5277 5269 5256 5248 5238 5229 5226 5224 5218 5210 5204 5198 5192 5188 5185 5182 5182
5076 5080 5083 5088 5093 5098 5105 5115 5129 5143 5160 5181 5193 5208 5225 5244 5252 5259 5262 5268 5281 5282 5274 5271 5266 5261 5253 5244 5241 5226 5220 5209 5201 5199 5197 5191 5185 5180 5175 5170 5165 5162 5161
5076 5078 5081 5084 5089 5093 5100 5110 5120 5134 5150 5169 5179 5189 5200 5217 5231 5243 5247 5247 5255 5263 5258 5248 5240 5236 5232 5226 5217 5208 5196 5192 5180 5172 5173 5168 5164 5158 5155 5149 5143 5144 5146
5076 5078 5081 5083 5088 5094 5099 5107 5119 5132 5148 5159 5166 5175 5185 5197 5213 5221 5223 5228 5229 5230 5230 5223 5209 5207 5205 5200 5192 5183 5176 5169 5161 5157 5154 5147 5142 5139 5136 5132 5130 5128 5127
5082 5083 5087 5094 5101 5103 5108 5114 5122 5132 5143 5149 5155 5162 5175 5185 5195 5201 5199 5199 5199 5199 5194 5188 5184 5181 5175 5174 5171 5162 5155 5149 5144 5140 5136 5131 5126 5122 5120 5118 5117 5115 5112
5087 5091 5096 5104 5114 5121 5121 5125 5133 5136 5139 5144 5149 5156 5164 5164 5165 5164 5164 5164 5166 5167 5166 5163 5160 5154 5151 5151 5147 5144 5141 5134 5129 5125 5121 5115 5112 5108 5105 5103 5101 5100 5099
5090 5093 5099 5106 5114 5120 5125 5129 5133 5135 5133 5132 5134 5137 5139 5141 5145 5142 5141 5141 5144 5143 5144 5142 5137 5133 5128 5126 5125 5127 5123 5118 5114 5109 5105 5100 5098 5097 5094 5089 5089 5090 5089
5086 5090 5094 5099 5105 5110 5113 5115 5118 5119 5121 5122 5123 5124 5125 5127 5129 5127 5126 5126 5125 5126 5126 5123 5118 5115 5113 5110 5109 5108 5107 5103 5099 5094 5091 5091 5089 5084 5081 5080 5082 5082 5081
5086 5087 5088 5091 5095 5098 5101 5104 5105 5107 5110 5112 5113 5114 5115 5116 5116 5115 5113 5113 5112 5110 5107 5104 5102 5102 5101 5099 5097 5095 5092 5090 5090 5088 5084 5080 5076 5073 5074 5077 5076 5072 5068